COSMOS 874

导读 | 豆包AI

COSMOS 874(宇宙874)是**CIS(独联体,继承自苏联)于1976年12月7日发射的人造卫星**,隶属于苏联冷战时期的“宇宙”(Cosmos)卫星系列。该系列卫星多承担军事侦察、空间技术试验等任务,COSMOS 874的发射是当时美苏太空战略竞争的组成部分,体现了苏联在冷战时期对近地空间开发与军事监视能力的推进,该卫星现已完成使命,再入大气层销毁。

基本信息
目录编号:
9591
目录名称:
COSMOS 874
国际标识:
1976-118D
轨道中心:
EARTH
卫星名称:
COSMOS 874
卫星全名:
--
卫星状态:
在轨 (已飞行18041 天)
发射日期:
1976-12-07 UTC
国别 :
俄罗斯(独联体) (CIS)
星等 :
--
轨道信息
数据来源 国际轨道数据
星历时间: 2026-04-30T22:35:18+0800
6小时前
查看轨道信息
半长轴: 7867.817km
偏心率: 0.0032727
轨道倾角: 74.029°
近地点辐角 103.339°
升交点赤经 299.536°
平近点角 321.578°
近地点: 1463.93km
远地点: 1515.43km
周期: 115.755分钟
每日圈数: 12.440031
详细信息
使用方式:
暂无
2D轨道图
3D轨道图
轨道高度分析图
轨道倾角分析图
轨道综合分析图
查看轨道综合分析图